Location: Starlight Observatory
(38.4029°N, 85.8936°W)
Time: 04:03:31
(UTC-05:00)

Iridium 62 - Visible Passes

Search period start: 25 February 2017 00:00
Search period end: 07 March 2017 00:00
Orbit: 776 x 779 km, 86.4° (Epoch: 24 February)

Date Brightness Start Highest point End Pass type
(mag) Time Alt. Az. Time Alt. Az. Time Alt. Az.
25 Feb 6.0 19:37:59 10° N 19:43:03 50° E 19:48:06 10° SSE visible
25 Feb 8.5 21:20:01 10° NW 21:23:18 17° W 21:26:34 10° WSW visible
26 Feb 6.7 19:04:59 10° NNE 19:09:23 27° E 19:13:44 10° SE visible
26 Feb 7.6 20:45:30 10° NNW 20:50:03 31° W 20:54:36 10° SW visible
27 Feb 6.4 20:11:33 10° N 20:16:41 59° W 20:21:47 10° SSW visible
28 Feb 5.7 19:37:58 10° N 19:43:12 74° E 19:48:24 10° S visible
28 Feb 9.0 21:21:35 10° WNW 21:23:10 11° WNW 21:24:46 10° W visible
01 Mar 6.3 19:04:43 10° NNE 19:09:35 39° E 19:14:26 10° SSE visible
01 Mar 8.3 20:46:05 10° NNW 20:49:59 22° W 20:53:54 10° SW visible
02 Mar 7.2 20:11:51 10° NNW 20:16:42 40° W 20:21:32 10° SSW visible
03 Mar 6.0 19:38:03 10° N 19:43:17 77° W 19:48:29 10° S visible
04 Mar 5.9 19:04:36 10° N 19:09:45 57° E 19:14:52 10° SSE visible
04 Mar 8.9 20:47:03 10° NW 20:49:54 15° WNW 20:52:45 10° WSW visible
05 Mar 9.1 06:22:26 10° ESE 06:24:45 13° ENE 06:27:03 10° NE visible
05 Mar 8.0 20:12:18 10° NNW 20:16:41 28° W 20:21:02 10° SW visible
06 Mar 6.8 19:38:17 10° NNW 19:43:20 52° W 19:48:22 10° SSW visible
